SCP
0 0 0 0 0 0 0 0 0 0 0 0 0 0 0 0 0 0 0 -0 -0 -0 -0 -0 -0 -0 -0 0 0 0 0 0 0 0 0 0 0 0 0 0 0 0 0 0 0 0 0 0 0
-0 0 0 0 0 0 0 -0 0 0 0 0 0 0 0 0 0 0 -0 0 -0 -0 -0 -0 -0 -0 -0 -0 0 0 0 0 0 0 0 0 0 0 0 0 0 0 0 0 0 0 0 0 0
-0 0 0 0 0 0 0 0 0 0 0 0 0 0 0 0 0 0 -0 -0 -0 -0 -0 -0 -0 -0 -0 0 0 0 0 0 0 0 0 0 0 0 0 0 0 0 0 0 0 0 0 0 0
-0 0 0 0 0 0 0 0 0 0 0 0 0 0 0 0 0 0 0 -0 -0 -0 -0 -0 -0 0 0 0 0 0 0 0 0 0 0 0 0 0 0 0 0 0 0 0 0 0 0 0 0
0 0 0 0 0 0 0 0 0 0 0 0 0 0 0 0 0 0 0 0 -0 -0 -0 -0 -0 0 0 0 0 0 0 0 0 0 0 0 0 0 0 0 0 0 0 0 0 0 0 0 0
0 0 0 0 0 0 0 0 0 0 0 0 0 0 0 0 0 0 0 0 0 0 0 0 0 0 0 0 0 0 0 0 0 0 0 0 0 0 0 0 0 0 0 0 0 0 0 0 0
0 0 0 0 0 0 0 0 0 0 0 0 0 0 0 0 0 0 0 0 0 0 0 0 0 0 0 0 0 0 0 0 0 0 0 0 0 0 0 0 0 0 0 0 0 0 0 0 0
0 0 0 0 0 0 0 0 0 0 0 0 0 0 0 0 0 0 0 0 0 0 0 0 0 0 0 0 0 0 1 1 0 1 1 0 0 0 0 0 0 0 0 1 1 1 1 0 0
0 0 0 0 0 0 0 0 0 0 0 0 0 0 0 0 0 0 0 0 0 0 0 0 0 0 0 0 0 1 1 1 1 1 1 1 0 0 0 0 0 1 1 1 1 1 1 1 0
0 0 0 0 0 0 0 0 0 0 0 0 0 0 0 0 0 0 0 0 0 0 0 0 0 0 0 0 0 0 0 0 0 0 0 0 0 0 0 0 0 1 1 1 1 1 1 1 0
0 0 0 0 0 0 0 0 0 0 0 0 0 0 0 0 0 0 0 0 0 0 0 0 0 0 0 0 0 1 1 0 1 0 1 1 0 0 0 0 0 0 1 0 1 1 1 0 0
0 0 0 0 0 0 0 0 0 0 0 0 0 0 0 0 0 0 0 0 0 0 0 0 0 1 1 0 0 0 0 1 1 1 1 1 1 1 1 1 0 1 1 1 1 1 1 1 0
0 0 0 0 0 0 0 0 0 0 0 0 0 0 0 0 0 0 0 0 0 0 0 0 0 2 2 2 0 1 1 1 1 1 2 2 1 2 1 1 1 1 0 1 1 1 1 1 1
0 0 0 0 0 0 0 0 0 0 0 0 0 0 0 0 0 0 0 0 0 0 0 0 0 3 3 2 1 2 2 1 1 1 3 3 3 3 1 2 1 1 1 0 1 1 1 1 1
0 0 0 0 0 0 0 0 0 0 0 0 0 0 0 0 0 0 0 0 0 0 0 0 1 2 4 2 2 2 1 1 1 2 5 6 5 3 3 1 1 1 1 1 1 2 2 1 1
0 0 0 0 0 0 0 0 0 0 0 0 0 0 0 0 0 0 0 0 0 0 0 1 0 0 4 4 3 2 1 1 1 2 4 6 7 3 3 1 2 1 1 1 1 1 1 1 1
0 0 0 0 0 0 0 0 0 0 0 0 0 0 0 0 0 0 0 0 0 0 0 0 1 0 2 4 2 2 3 2 1 2 3 6 4 2 2 1 2 2 1 1 1 1 1 1 1
0 0 0 0 0 0 0 0 0 0 0 0 0 0 0 0 0 0 0 0 0 0 1 2 1 2 3 1 3 1 0 1 2 2 3 6 3 2 3 1 2 2 1 1 1 1 1 1 0
0 0 0 0 0 0 0 0 0 0 0 0 0 0 0 0 0 0 0 0 0 0 1 1 1 3 2 1 1 0 1 2 2 2 3 3 3 2 2 1 2 2 1 2 2 1 1 0 2
0 0 0 0 0 0 0 0 0 0 0 0 0 0 0 0 0 0 0 0 0 0 0 1 2 2 4 2 3 2 3 1 2 2 4 3 2 2 2 1 2 2 1 2 2 2 1 1 1
0 0 0 0 0 0 0 0 0 0 0 0 0 0 0 0 0 0 0 0 0 0 0 0 2 3 4 3 3 6 4 4 3 4 3 2 1 2 3 1 2 2 1 1 2 1 1 1 1
0 0 0 0 0 0 0 0 0 0 0 0 0 0 0 0 0 0 0 0 0 0 0 0 1 3 4 6 2 5 2 2 2 2 1 2 2 2 2 1 2 2 1 2 1 1 1 2 1
0 0 0 0 0 0 0 0 0 0 0 0 0 0 0 0 0 0 0 0 0 0 0 0 1 3 4 5 3 2 1 1 1 1 3 3 3 2 1 2 2 1 1 3 2 2 1 1 1
0 0 0 0 0 0 0 0 0 0 0 0 0 0 0 0 0 0 0 0 0 0 0 0 0 2 3 2 2 2 1 1 1 3 3 2 2 2 1 2 1 1 2 2 1 1 1 1 0
0 -0 0 0 0 0 0 0 0 0 0 0 0 0 0 0 0 0 0 0 0 0 0 0 0 1 1 1 1 1 1 3 4 3 2 2 3 2 2 2 2 2 1 1 1 1 1 0 0
-0 0 0 0 0 0 0 0 0 0 0 0 0 0 0 0 0 0 0 0 0 0 0 0 0 0 0 1 1 1 1 2 2 1 2 2 1 2 2 1 1 1 1 1 1 1 0 0 0
0 0 0 0 0 0 0 0 0 0 0 0 0 0 0 0 0 0 0 0 0 0 0 0 0 0 1 1 1 1 1 2 2 3 4 2 1 2 1 1 1 1 1 1 0 0 0 0 0
0 0 0 -0 0 0 -0 0 0 0 0 0 -0 0 0 0 0 0 0 0 1 0 0 0 0 1 1 1 1 1 1 2 3 2 2 2 2 1 1 1 1 1 0 0 0 0 0 0 0
0 -0 0 0 0 0 -0 0 0 0 0 0 0 0 0 0 0 0 0 0 0 0 0 0 0 1 1 1 1 1 2 1 1 1 1 1 1 1 0 1 0 0 0 0 0 0 0 0 0
-0 0 0 0 0 0 0 0 0 0 0 0 0 0 0 0 0 0 -1 0 1 0 0 0 1 0 1 1 1 1 1 1 1 1 1 1 0 0 0 0 0 0 0 0 0 0 0 0 0
Wind_Speed_500mb
19 12 9 18 15 16 34 36 24 19 22 13 4 16 16 36 11 2 29 33 43 47 45 40 36 35 36 38 38 37 35 33 31 31 28 25 23 20 17 13 10 7 5 6 8 8 7 5 5
18 15 18 25 18 29 27 35 22 20 21 21 17 24 15 29 5 28 37 42 43 48 46 44 42 40 39 40 40 39 37 34 30 28 26 24 22 19 17 15 13 10 7 4 5 6 5 4 3
20 20 28 18 29 33 30 34 23 35 9 16 13 19 17 14 12 10 30 45 45 45 46 44 43 42 41 42 41 40 36 34 31 28 26 23 22 19 17 18 18 14 10 6 3 2 1 4 5
15 20 26 25 39 41 44 6 13 21 17 19 23 9 12 8 8 17 45 46 42 42 43 41 42 40 41 42 43 39 37 36 34 32 29 27 25 22 21 20 19 16 11 9 7 4 3 4 6
20 27 26 33 42 46 28 32 19 15 20 17 22 22 21 19 12 24 45 45 41 40 39 40 42 41 40 42 42 40 39 38 36 35 34 33 31 29 26 25 23 19 15 13 13 12 9 8 8
24 25 25 33 44 39 37 23 25 31 32 29 22 28 17 16 20 29 50 44 37 40 38 39 42 42 40 40 39 41 40 38 38 38 37 36 34 33 31 29 26 23 20 18 17 15 12 11 10
36 26 35 41 41 41 26 31 29 37 36 37 35 34 34 24 27 35 49 43 38 39 37 39 41 45 44 42 38 39 39 39 41 41 40 40 38 37 35 33 31 29 25 23 20 18 15 13 13
47 29 50 42 38 44 39 37 39 38 37 36 23 23 34 30 29 40 48 44 38 38 35 34 38 44 46 46 45 43 41 41 43 45 43 45 43 44 42 41 39 36 32 28 24 21 19 17 16
45 34 38 49 45 38 27 39 52 38 41 36 23 33 5 12 26 42 50 45 40 36 37 35 32 37 43 47 47 46 46 47 49 51 50 52 52 55 54 52 48 43 39 35 31 27 25 23 22
50 36 55 47 39 31 25 36 42 41 35 43 38 11 6 14 31 46 50 46 44 40 39 34 36 38 37 37 37 45 49 57 58 58 60 62 61 59 54 55 55 51 47 43 38 35 32 31 22
62 57 51 52 55 48 37 44 42 47 34 48 41 36 23 12 32 46 48 46 44 41 38 33 40 38 38 36 38 41 38 45 51 59 65 66 61 59 51 46 53 57 57 52 48 45 44 33 24
56 77 69 67 72 50 35 47 51 57 51 49 45 43 40 18 22 37 37 43 38 32 38 34 34 44 43 40 40 40 38 36 39 44 50 61 64 59 58 50 44 47 48 58 43 38 38 36 30
65 62 74 75 68 62 65 51 54 58 63 58 54 33 33 30 29 30 30 29 26 27 33 33 34 46 38 35 45 44 42 38 38 42 48 56 53 57 57 57 48 46 39 45 43 43 41 34 32
68 68 76 76 74 72 58 62 47 75 62 66 65 61 51 51 49 41 38 38 38 36 35 34 32 38 41 28 24 35 37 38 43 44 48 62 58 58 56 57 50 51 46 41 42 40 43 39 36
65 60 56 58 71 68 72 54 61 83 69 66 69 63 61 64 60 55 45 41 39 40 35 37 41 36 44 38 34 35 37 44 46 47 54 63 69 57 61 52 48 49 51 50 46 46 42 41 37
45 44 53 68 58 63 53 73 73 78 73 76 77 74 66 68 63 59 53 50 43 44 44 40 39 34 34 39 38 40 43 52 47 45 47 56 68 63 58 52 50 49 48 49 47 45 40 41 38
43 50 60 62 60 58 59 72 65 89 81 71 82 78 75 77 75 63 58 60 45 41 43 40 38 36 38 38 48 51 54 59 50 42 41 49 57 53 51 49 49 50 46 47 45 43 42 41 39
46 55 58 61 56 55 60 73 66 76 72 69 88 73 76 76 70 63 49 41 40 44 45 43 46 46 53 60 62 62 56 56 45 42 41 47 49 49 48 44 45 48 43 42 43 42 40 37 34
47 54 66 60 50 57 58 62 70 64 66 67 71 72 82 72 65 65 53 42 45 47 51 58 58 57 57 63 60 51 45 42 40 39 42 42 45 44 48 41 41 44 41 41 46 41 45 35 36
45 51 58 56 60 52 51 57 65 52 60 71 75 78 68 61 63 62 59 56 57 58 56 59 59 50 54 49 55 44 41 39 39 35 41 42 42 45 46 41 41 47 33 41 43 41 32 31 29
38 42 47 56 50 53 55 58 62 61 61 63 75 82 82 80 73 64 60 58 59 61 58 56 56 49 53 47 45 51 46 37 38 38 39 40 40 47 46 45 40 34 35 31 35 35 34 27 25
41 41 45 44 47 43 56 46 52 58 56 52 67 70 68 62 62 66 69 70 69 68 63 62 60 58 51 48 47 42 37 37 38 38 34 36 44 48 41 44 40 38 32 30 29 31 29 28 25
44 39 44 48 47 52 61 44 49 42 54 52 52 68 75 79 78 74 70 71 69 67 64 63 60 58 61 51 45 40 42 35 29 33 47 49 48 39 39 45 41 37 29 31 30 29 32 26 25
44 41 52 49 43 42 59 54 51 45 41 30 35 47 56 57 58 59 56 56 54 53 58 56 56 60 67 57 53 52 44 39 38 45 41 41 40 40 43 43 38 30 27 26 28 34 29 25 20
33 45 30 35 35 41 53 54 43 44 51 58 33 56 47 27 30 36 40 38 41 40 42 52 52 54 54 51 53 50 49 42 47 49 37 38 44 43 47 40 35 31 30 27 30 31 27 25 21
51 41 32 38 33 40 54 55 44 58 49 15 13 6 20 24 23 21 28 32 34 35 37 41 44 45 45 43 42 42 46 43 42 41 39 31 35 36 41 38 33 28 27 28 27 25 17 16 19
29 38 44 41 52 35 29 54 58 48 41 43 41 35 26 14 15 27 27 28 33 30 33 40 41 41 41 40 41 43 44 44 41 43 42 37 33 35 36 33 28 29 30 26 23 14 20 20 19
36 29 25 29 41 39 39 44 38 60 48 35 31 16 10 9 18 18 18 17 20 21 29 36 39 40 39 41 41 42 43 43 45 42 39 40 39 33 34 30 33 28 25 20 18 17 18 21 22
16 35 24 28 16 18 26 28 29 52 58 36 27 17 9 9 19 21 14 17 20 20 29 37 41 42 44 43 45 46 45 42 40 41 39 37 34 33 30 28 27 22 20 21 20 18 18 22 24
26 32 19 24 29 35 33 33 49 63 17 63 25 13 3 16 23 25 15 8 12 25 33 38 42 44 43 44 44 45 44 43 44 41 37 33 31 27 26 26 23 23 22 20 21 20 18 19 20
Wind_Direction_500mb
222 231 275 235 239 231 247 233 236 215 202 235 322 238 248 251 213 79 135 145 151 162 171 178 182 180 174 170 168 167 167 168 168 166 166 165 173 174 178 184 195 185 151 100 83 86 84 59 11
202 235 243 262 241 244 232 240 198 230 199 165 228 220 238 244 182 113 148 143 156 170 174 184 189 189 185 181 176 176 178 178 179 177 176 178 185 184 185 189 194 194 184 144 89 66 52 49 34
167 219 257 228 234 248 258 202 186 203 121 230 236 214 206 185 244 99 161 151 161 178 182 185 192 192 192 191 186 183 186 189 190 189 187 191 194 196 195 198 199 200 197 186 160 106 19 346 331
190 215 250 261 250 230 261 319 196 197 199 217 238 193 199 212 158 164 162 162 166 172 183 182 196 198 197 198 197 191 194 199 199 201 201 203 205 205 207 209 208 206 207 207 212 216 231 261 286
221 254 241 249 245 264 253 266 231 247 223 210 196 227 206 192 186 166 176 162 165 171 178 185 200 203 204 204 205 200 202 206 208 211 211 214 214 215 214 215 215 213 215 217 218 222 227 237 255
223 236 245 246 248 250 257 251 232 241 238 229 211 240 216 185 191 177 168 167 170 175 178 192 203 209 213 213 212 214 210 213 217 220 221 223 223 222 222 222 221 222 223 225 225 226 234 241 255
237 233 243 252 271 279 258 246 229 240 239 236 229 222 228 192 206 184 176 174 173 178 177 208 207 213 218 222 223 227 224 222 224 226 228 231 233 232 231 231 229 229 229 231 231 235 243 252 267
237 249 263 255 252 251 268 288 282 255 247 257 272 231 226 212 181 181 181 179 180 182 186 197 220 221 224 227 228 229 233 236 235 235 232 237 238 239 237 235 233 234 234 235 237 245 254 256 266
234 249 249 252 253 253 242 248 247 253 254 271 237 240 27 139 181 185 185 188 190 191 196 199 209 227 228 233 238 237 239 241 241 242 238 238 238 240 238 237 236 235 236 236 240 247 249 253 259
228 239 241 253 265 280 267 263 264 241 226 238 216 233 219 196 192 189 190 193 199 198 202 205 205 209 223 217 233 246 245 245 245 243 242 238 237 238 241 242 237 235 235 237 240 244 244 247 253
230 241 248 248 246 256 258 263 263 265 240 220 228 200 203 172 197 200 198 205 205 212 210 214 231 215 214 221 218 243 250 249 252 249 246 246 238 236 233 231 244 234 231 233 236 239 239 236 247
241 242 244 255 269 272 245 256 263 265 256 248 231 219 189 187 206 216 222 215 223 216 221 216 223 251 241 225 228 231 229 241 246 257 258 245 245 236 223 228 228 243 228 234 228 234 232 236 233
240 248 249 250 251 254 264 245 255 255 251 253 249 240 217 232 228 227 231 239 235 235 227 234 234 251 258 252 229 236 237 237 235 237 252 259 236 232 228 223 222 230 226 234 226 228 235 233 232
255 252 251 253 253 249 242 249 252 253 251 251 245 248 240 238 233 231 231 235 241 243 240 241 233 238 258 248 246 239 252 239 242 237 236 255 255 228 225 228 227 222 230 227 231 228 230 234 236
262 265 267 261 245 248 250 248 237 248 250 247 250 242 242 245 242 239 237 244 247 248 247 244 239 236 252 243 252 265 261 260 251 241 238 240 254 231 226 224 227 226 224 228 228 230 234 232 239
280 261 250 245 247 248 240 250 247 245 244 246 246 248 241 239 238 241 243 248 249 253 252 248 241 238 251 253 257 270 268 268 251 244 235 243 240 241 226 220 227 224 225 227 225 228 229 235 238
247 250 245 253 242 240 237 248 249 251 251 247 241 242 242 243 242 243 247 251 247 247 245 239 238 234 234 250 260 270 269 265 248 240 232 232 230 230 220 221 220 224 222 223 225 224 227 232 237
253 245 248 255 257 234 236 241 246 248 250 253 256 250 237 238 238 239 234 240 243 242 242 239 238 246 258 262 267 267 264 261 244 234 228 224 227 221 228 215 214 221 219 221 221 222 224 228 240
274 273 277 274 264 244 259 241 244 240 239 252 257 240 244 244 242 243 238 238 244 245 247 252 255 261 260 256 256 253 251 242 237 228 222 215 217 216 220 204 221 212 214 215 220 219 217 226 234
283 278 271 271 268 273 265 256 260 248 239 234 243 249 252 242 239 244 248 251 253 252 251 252 261 259 258 252 248 241 245 241 231 221 217 211 211 209 208 193 213 216 208 213 212 212 216 224 230
269 268 275 279 285 267 260 262 266 259 249 244 244 246 249 248 249 251 252 253 252 253 252 252 255 255 247 254 245 244 235 227 220 211 208 205 201 206 206 182 212 211 185 208 203 213 197 214 213
271 273 277 270 264 260 251 259 246 245 249 243 246 243 246 249 253 252 253 253 253 251 253 249 245 248 246 238 233 228 229 222 216 205 201 197 196 208 204 183 190 194 186 207 211 201 206 216 228
282 286 282 275 264 256 256 254 251 244 238 236 237 243 244 243 244 246 248 253 253 254 250 245 239 236 239 238 236 227 226 221 211 193 198 199 201 196 188 176 182 186 176 201 202 204 211 224 232
292 284 275 267 259 249 245 246 245 240 251 253 256 254 247 245 242 245 250 254 254 252 246 238 231 229 237 237 241 224 220 201 195 190 194 188 178 176 178 176 182 189 182 205 198 210 218 229 228
268 264 262 251 242 251 246 247 241 250 249 255 272 245 235 237 239 239 245 248 247 247 242 230 229 223 228 222 226 213 196 195 187 191 176 172 172 173 177 180 183 190 188 204 208 224 225 234 220
291 262 257 257 258 251 230 246 247 235 243 195 265 310 253 226 238 261 258 259 251 249 236 222 217 215 204 201 200 192 188 187 185 174 177 170 170 175 180 177 184 190 202 211 215 222 229 231 217
309 245 251 261 264 273 272 283 232 250 214 242 249 238 215 232 262 257 269 266 253 247 225 210 200 191 191 185 179 175 175 175 179 175 168 170 170 183 178 178 185 196 208 204 219 214 218 219 214
235 259 256 248 256 274 260 248 242 217 238 221 226 160 181 241 267 282 290 273 253 236 205 193 192 186 177 172 167 165 164 166 163 164 161 164 167 166 172 183 195 197 201 208 206 207 223 221 220
243 233 223 273 277 264 290 290 350 200 201 216 154 160 125 335 328 324 318 272 247 209 193 181 177 171 166 163 159 160 162 162 157 156 156 159 158 164 172 187 194 195 202 203 209 198 209 217 218
238 257 236 243 247 255 254 276 296 289 200 188 123 149 74 332 319 328 356 289 208 180 170 168 165 163 161 159 158 158 156 155 154 153 155 159 161 168 182 192 195 195 194 199 202 202 217 215 217
Wind_Speed_850mb
19 12 9 18 15 16 34 36 24 19 22 13 4 16 16 36 11 2 29 33 43 47 45 40 36 35 36 38 38 37 35 33 31 31 28 25 23 20 17 13 10 7 5 6 8 8 7 5 5
18 15 18 25 18 29 27 35 22 20 21 21 17 24 15 29 5 28 37 42 43 48 46 44 42 40 39 40 40 39 37 34 30 28 26 24 22 19 17 15 13 10 7 4 5 6 5 4 3
20 20 28 18 29 33 30 34 23 35 9 16 13 19 17 14 12 10 30 45 45 45 46 44 43 42 41 42 41 40 36 34 31 28 26 23 22 19 17 18 18 14 10 6 3 2 1 4 5
15 20 26 25 39 41 44 6 13 21 17 19 23 9 12 8 8 17 45 46 42 42 43 41 42 40 41 42 43 39 37 36 34 32 29 27 25 22 21 20 19 16 11 9 7 4 3 4 6
20 27 26 33 42 46 28 32 19 15 20 17 22 22 21 19 12 24 45 45 41 40 39 40 42 41 40 42 42 40 39 38 36 35 34 33 31 29 26 25 23 19 15 13 13 12 9 8 8
24 25 25 33 44 39 37 23 25 31 32 29 22 28 17 16 20 29 50 44 37 40 38 39 42 42 40 40 39 41 40 38 38 38 37 36 34 33 31 29 26 23 20 18 17 15 12 11 10
36 26 35 41 41 41 26 31 29 37 36 37 35 34 34 24 27 35 49 43 38 39 37 39 41 45 44 42 38 39 39 39 41 41 40 40 38 37 35 33 31 29 25 23 20 18 15 13 13
47 29 50 42 38 44 39 37 39 38 37 36 23 23 34 30 29 40 48 44 38 38 35 34 38 44 46 46 45 43 41 41 43 45 43 45 43 44 42 41 39 36 32 28 24 21 19 17 16
45 34 38 49 45 38 27 39 52 38 41 36 23 33 5 12 26 42 50 45 40 36 37 35 32 37 43 47 47 46 46 47 49 51 50 52 52 55 54 52 48 43 39 35 31 27 25 23 22
50 36 55 47 39 31 25 36 42 41 35 43 38 11 6 14 31 46 50 46 44 40 39 34 36 38 37 37 37 45 49 57 58 58 60 62 61 59 54 55 55 51 47 43 38 35 32 31 22
62 57 51 52 55 48 37 44 42 47 34 48 41 36 23 12 32 46 48 46 44 41 38 33 40 38 38 36 38 41 38 45 51 59 65 66 61 59 51 46 53 57 57 52 48 45 44 33 24
56 77 69 67 72 50 35 47 51 57 51 49 45 43 40 18 22 37 37 43 38 32 38 34 34 44 43 40 40 40 38 36 39 44 50 61 64 59 58 50 44 47 48 58 43 38 38 36 30
65 62 74 75 68 62 65 51 54 58 63 58 54 33 33 30 29 30 30 29 26 27 33 33 34 46 38 35 45 44 42 38 38 42 48 56 53 57 57 57 48 46 39 45 43 43 41 34 32
68 68 76 76 74 72 58 62 47 75 62 66 65 61 51 51 49 41 38 38 38 36 35 34 32 38 41 28 24 35 37 38 43 44 48 62 58 58 56 57 50 51 46 41 42 40 43 39 36
65 60 56 58 71 68 72 54 61 83 69 66 69 63 61 64 60 55 45 41 39 40 35 37 41 36 44 38 34 35 37 44 46 47 54 63 69 57 61 52 48 49 51 50 46 46 42 41 37
45 44 53 68 58 63 53 73 73 78 73 76 77 74 66 68 63 59 53 50 43 44 44 40 39 34 34 39 38 40 43 52 47 45 47 56 68 63 58 52 50 49 48 49 47 45 40 41 38
43 50 60 62 60 58 59 72 65 89 81 71 82 78 75 77 75 63 58 60 45 41 43 40 38 36 38 38 48 51 54 59 50 42 41 49 57 53 51 49 49 50 46 47 45 43 42 41 39
46 55 58 61 56 55 60 73 66 76 72 69 88 73 76 76 70 63 49 41 40 44 45 43 46 46 53 60 62 62 56 56 45 42 41 47 49 49 48 44 45 48 43 42 43 42 40 37 34
47 54 66 60 50 57 58 62 70 64 66 67 71 72 82 72 65 65 53 42 45 47 51 58 58 57 57 63 60 51 45 42 40 39 42 42 45 44 48 41 41 44 41 41 46 41 45 35 36
45 51 58 56 60 52 51 57 65 52 60 71 75 78 68 61 63 62 59 56 57 58 56 59 59 50 54 49 55 44 41 39 39 35 41 42 42 45 46 41 41 47 33 41 43 41 32 31 29
38 42 47 56 50 53 55 58 62 61 61 63 75 82 82 80 73 64 60 58 59 61 58 56 56 49 53 47 45 51 46 37 38 38 39 40 40 47 46 45 40 34 35 31 35 35 34 27 25
41 41 45 44 47 43 56 46 52 58 56 52 67 70 68 62 62 66 69 70 69 68 63 62 60 58 51 48 47 42 37 37 38 38 34 36 44 48 41 44 40 38 32 30 29 31 29 28 25
44 39 44 48 47 52 61 44 49 42 54 52 52 68 75 79 78 74 70 71 69 67 64 63 60 58 61 51 45 40 42 35 29 33 47 49 48 39 39 45 41 37 29 31 30 29 32 26 25
44 41 52 49 43 42 59 54 51 45 41 30 35 47 56 57 58 59 56 56 54 53 58 56 56 60 67 57 53 52 44 39 38 45 41 41 40 40 43 43 38 30 27 26 28 34 29 25 20
33 45 30 35 35 41 53 54 43 44 51 58 33 56 47 27 30 36 40 38 41 40 42 52 52 54 54 51 53 50 49 42 47 49 37 38 44 43 47 40 35 31 30 27 30 31 27 25 21
51 41 32 38 33 40 54 55 44 58 49 15 13 6 20 24 23 21 28 32 34 35 37 41 44 45 45 43 42 42 46 43 42 41 39 31 35 36 41 38 33 28 27 28 27 25 17 16 19
29 38 44 41 52 35 29 54 58 48 41 43 41 35 26 14 15 27 27 28 33 30 33 40 41 41 41 40 41 43 44 44 41 43 42 37 33 35 36 33 28 29 30 26 23 14 20 20 19
36 29 25 29 41 39 39 44 38 60 48 35 31 16 10 9 18 18 18 17 20 21 29 36 39 40 39 41 41 42 43 43 45 42 39 40 39 33 34 30 33 28 25 20 18 17 18 21 22
16 35 24 28 16 18 26 28 29 52 58 36 27 17 9 9 19 21 14 17 20 20 29 37 41 42 44 43 45 46 45 42 40 41 39 37 34 33 30 28 27 22 20 21 20 18 18 22 24
26 32 19 24 29 35 33 33 49 63 17 63 25 13 3 16 23 25 15 8 12 25 33 38 42 44 43 44 44 45 44 43 44 41 37 33 31 27 26 26 23 23 22 20 21 20 18 19 20
Wind_Direction_850mb
222 231 275 235 239 231 247 233 236 215 202 235 322 238 248 251 213 79 135 145 151 162 171 178 182 180 174 170 168 167 167 168 168 166 166 165 173 174 178 184 195 185 151 100 83 86 84 59 11
202 235 243 262 241 244 232 240 198 230 199 165 228 220 238 244 182 113 148 143 156 170 174 184 189 189 185 181 176 176 178 178 179 177 176 178 185 184 185 189 194 194 184 144 89 66 52 49 34
167 219 257 228 234 248 258 202 186 203 121 230 236 214 206 185 244 99 161 151 161 178 182 185 192 192 192 191 186 183 186 189 190 189 187 191 194 196 195 198 199 200 197 186 160 106 19 346 331
190 215 250 261 250 230 261 319 196 197 199 217 238 193 199 212 158 164 162 162 166 172 183 182 196 198 197 198 197 191 194 199 199 201 201 203 205 205 207 209 208 206 207 207 212 216 231 261 286
221 254 241 249 245 264 253 266 231 247 223 210 196 227 206 192 186 166 176 162 165 171 178 185 200 203 204 204 205 200 202 206 208 211 211 214 214 215 214 215 215 213 215 217 218 222 227 237 255
223 236 245 246 248 250 257 251 232 241 238 229 211 240 216 185 191 177 168 167 170 175 178 192 203 209 213 213 212 214 210 213 217 220 221 223 223 222 222 222 221 222 223 225 225 226 234 241 255
237 233 243 252 271 279 258 246 229 240 239 236 229 222 228 192 206 184 176 174 173 178 177 208 207 213 218 222 223 227 224 222 224 226 228 231 233 232 231 231 229 229 229 231 231 235 243 252 267
237 249 263 255 252 251 268 288 282 255 247 257 272 231 226 212 181 181 181 179 180 182 186 197 220 221 224 227 228 229 233 236 235 235 232 237 238 239 237 235 233 234 234 235 237 245 254 256 266
234 249 249 252 253 253 242 248 247 253 254 271 237 240 27 139 181 185 185 188 190 191 196 199 209 227 228 233 238 237 239 241 241 242 238 238 238 240 238 237 236 235 236 236 240 247 249 253 259
228 239 241 253 265 280 267 263 264 241 226 238 216 233 219 196 192 189 190 193 199 198 202 205 205 209 223 217 233 246 245 245 245 243 242 238 237 238 241 242 237 235 235 237 240 244 244 247 253
230 241 248 248 246 256 258 263 263 265 240 220 228 200 203 172 197 200 198 205 205 212 210 214 231 215 214 221 218 243 250 249 252 249 246 246 238 236 233 231 244 234 231 233 236 239 239 236 247
241 242 244 255 269 272 245 256 263 265 256 248 231 219 189 187 206 216 222 215 223 216 221 216 223 251 241 225 228 231 229 241 246 257 258 245 245 236 223 228 228 243 228 234 228 234 232 236 233
240 248 249 250 251 254 264 245 255 255 251 253 249 240 217 232 228 227 231 239 235 235 227 234 234 251 258 252 229 236 237 237 235 237 252 259 236 232 228 223 222 230 226 234 226 228 235 233 232
255 252 251 253 253 249 242 249 252 253 251 251 245 248 240 238 233 231 231 235 241 243 240 241 233 238 258 248 246 239 252 239 242 237 236 255 255 228 225 228 227 222 230 227 231 228 230 234 236
262 265 267 261 245 248 250 248 237 248 250 247 250 242 242 245 242 239 237 244 247 248 247 244 239 236 252 243 252 265 261 260 251 241 238 240 254 231 226 224 227 226 224 228 228 230 234 232 239
280 261 250 245 247 248 240 250 247 245 244 246 246 248 241 239 238 241 243 248 249 253 252 248 241 238 251 253 257 270 268 268 251 244 235 243 240 241 226 220 227 224 225 227 225 228 229 235 238
247 250 245 253 242 240 237 248 249 251 251 247 241 242 242 243 242 243 247 251 247 247 245 239 238 234 234 250 260 270 269 265 248 240 232 232 230 230 220 221 220 224 222 223 225 224 227 232 237
253 245 248 255 257 234 236 241 246 248 250 253 256 250 237 238 238 239 234 240 243 242 242 239 238 246 258 262 267 267 264 261 244 234 228 224 227 221 228 215 214 221 219 221 221 222 224 228 240
274 273 277 274 264 244 259 241 244 240 239 252 257 240 244 244 242 243 238 238 244 245 247 252 255 261 260 256 256 253 251 242 237 228 222 215 217 216 220 204 221 212 214 215 220 219 217 226 234
283 278 271 271 268 273 265 256 260 248 239 234 243 249 252 242 239 244 248 251 253 252 251 252 261 259 258 252 248 241 245 241 231 221 217 211 211 209 208 193 213 216 208 213 212 212 216 224 230
269 268 275 279 285 267 260 262 266 259 249 244 244 246 249 248 249 251 252 253 252 253 252 252 255 255 247 254 245 244 235 227 220 211 208 205 201 206 206 182 212 211 185 208 203 213 197 214 213
271 273 277 270 264 260 251 259 246 245 249 243 246 243 246 249 253 252 253 253 253 251 253 249 245 248 246 238 233 228 229 222 216 205 201 197 196 208 204 183 190 194 186 207 211 201 206 216 228
282 286 282 275 264 256 256 254 251 244 238 236 237 243 244 243 244 246 248 253 253 254 250 245 239 236 239 238 236 227 226 221 211 193 198 199 201 196 188 176 182 186 176 201 202 204 211 224 232
292 284 275 267 259 249 245 246 245 240 251 253 256 254 247 245 242 245 250 254 254 252 246 238 231 229 237 237 241 224 220 201 195 190 194 188 178 176 178 176 182 189 182 205 198 210 218 229 228
268 264 262 251 242 251 246 247 241 250 249 255 272 245 235 237 239 239 245 248 247 247 242 230 229 223 228 222 226 213 196 195 187 191 176 172 172 173 177 180 183 190 188 204 208 224 225 234 220
291 262 257 257 258 251 230 246 247 235 243 195 265 310 253 226 238 261 258 259 251 249 236 222 217 215 204 201 200 192 188 187 185 174 177 170 170 175 180 177 184 190 202 211 215 222 229 231 217
309 245 251 261 264 273 272 283 232 250 214 242 249 238 215 232 262 257 269 266 253 247 225 210 200 191 191 185 179 175 175 175 179 175 168 170 170 183 178 178 185 196 208 204 219 214 218 219 214
235 259 256 248 256 274 260 248 242 217 238 221 226 160 181 241 267 282 290 273 253 236 205 193 192 186 177 172 167 165 164 166 163 164 161 164 167 166 172 183 195 197 201 208 206 207 223 221 220
243 233 223 273 277 264 290 290 350 200 201 216 154 160 125 335 328 324 318 272 247 209 193 181 177 171 166 163 159 160 162 162 157 156 156 159 158 164 172 187 194 195 202 203 209 198 209 217 218
238 257 236 243 247 255 254 276 296 289 200 188 123 149 74 332 319 328 356 289 208 180 170 168 165 163 161 159 158 158 156 155 154 153 155 159 161 168 182 192 195 195 194 199 202 202 217 215 217